When you browse on this site, cookies collect data to enhance your experience and personalize the content and advertising you see.
Visit our Privacy Policy to learn more. By continuing to use the site, you agree to this use of cookies and data.
EN

Hourly Weather Kant

Today, 6 August, Thursday

Time Temperature Precipitation Wind Pressure Humidity
00:00 +33°C° 0.2 mm 3 mps 733 mmHg 67%
01:00 +33°C° 0.2 mm 4 mps 733 mmHg 68%
02:00 +33°C° 0.2 mm 4 mps 733 mmHg 69%
03:00 +33°C° 0 mm 4 mps 733 mmHg 72%
04:00 +32°C° 0 mm 4 mps 732 mmHg 74%
05:00 +31°C° 0 mm 3 mps 733 mmHg 74%
06:00 +33°C° 0 mm 6 mps 734 mmHg 71%
07:00 +34°C° 0 mm 8 mps 734 mmHg 67%
08:00 +36°C° 0 mm 10 mps 735 mmHg 64%
09:00 +37°C° 0 mm 10 mps 735 mmHg 59%
10:00 +38°C° 0 mm 11 mps 735 mmHg 53%
11:00 +41°C° 0 mm 11 mps 735 mmHg 48%
12:00 +41°C° 0 mm 11 mps 735 mmHg 48%
13:00 +40°C° 0 mm 10 mps 734 mmHg 48%
14:00 +40°C° 0 mm 10 mps 734 mmHg 48%
15:00 +40°C° 0 mm 9 mps 733 mmHg 50%
16:00 +39°C° 0 mm 9 mps 733 mmHg 53%
17:00 +38°C° 0 mm 8 mps 733 mmHg 55%
18:00 +37°C° 0 mm 8 mps 733 mmHg 58%
19:00 +35°C° 0 mm 7 mps 734 mmHg 62%
20:00 +34°C° 0 mm 7 mps 735 mmHg 65%
21:00 +34°C° 0.3 mm 7 mps 735 mmHg 67%
22:00 +33°C° 0.3 mm 6 mps 735 mmHg 70%
23:00 +33°C° 0.3 mm 6 mps 735 mmHg 72%

Tomorrow, 7 August, Friday

Time Temperature Precipitation Wind Pressure Humidity
00:00 +32°C° 0.3 mm 6 mps 735 mmHg 75%
01:00 +32°C° 0.3 mm 6 mps 735 mmHg 77%
02:00 +30°C° 0.3 mm 5 mps 735 mmHg 79%
03:00 +30°C° 0.2 mm 5 mps 735 mmHg 80%
04:00 +30°C° 0.2 mm 5 mps 735 mmHg 82%
05:00 +30°C° 0.2 mm 5 mps 735 mmHg 83%
06:00 +32°C° 0.1 mm 5 mps 736 mmHg 80%
07:00 +32°C° 0.1 mm 5 mps 736 mmHg 76%
08:00 +33°C° 0.1 mm 5 mps 737 mmHg 73%
09:00 +34°C° 0 mm 5 mps 737 mmHg 68%
10:00 +36°C° 0 mm 5 mps 737 mmHg 63%
11:00 +37°C° 0 mm 5 mps 736 mmHg 58%
12:00 +37°C° 0 mm 4 mps 736 mmHg 55%
13:00 +38°C° 0 mm 4 mps 735 mmHg 52%
14:00 +39°C° 0 mm 3 mps 735 mmHg 49%
15:00 +39°C° 0 mm 3 mps 734 mmHg 50%
16:00 +38°C° 0 mm 3 mps 734 mmHg 51%
17:00 +38°C° 0 mm 3 mps 734 mmHg 52%
18:00 +37°C° 0 mm 2 mps 734 mmHg 55%
19:00 +36°C° 0 mm 2 mps 734 mmHg 57%
20:00 +34°C° 0 mm 1 mps 735 mmHg 60%
21:00 +34°C° 0.1 mm 1 mps 735 mmHg 62%
22:00 +35°C° 0.1 mm 2 mps 735 mmHg 63%
23:00 +34°C° 0.1 mm 2 mps 735 mmHg 65%

Day after tomorrow, 8 August, Saturday

Time Temperature Precipitation Wind Pressure Humidity
00:00 +34°C° 0 mm 2 mps 735 mmHg 66%
01:00 +33°C° 0 mm 1 mps 735 mmHg 68%
02:00 +32°C° 0 mm 1 mps 734 mmHg 69%
03:00 +32°C° 0 mm 1 mps 734 mmHg 70%
04:00 +32°C° 0 mm 1 mps 734 mmHg 71%
05:00 +32°C° 0 mm 1 mps 734 mmHg 71%
06:00 +33°C° 0.1 mm 1 mps 734 mmHg 67%
07:00 +34°C° 0.1 mm 1 mps 735 mmHg 63%
08:00 +35°C° 0.1 mm 1 mps 735 mmHg 59%
09:00 +36°C° 0.1 mm 1 mps 735 mmHg 55%
10:00 +39°C° 0.1 mm 1 mps 734 mmHg 50%
11:00 +40°C° 0.1 mm 1 mps 734 mmHg 45%
12:00 +40°C° 0 mm 1 mps 734 mmHg 45%
13:00 +40°C° 0 mm 1 mps 733 mmHg 44%
14:00 +40°C° 0 mm 1 mps 733 mmHg 43%
15:00 +40°C° 0 mm 1 mps 732 mmHg 44%
16:00 +40°C° 0 mm 1 mps 732 mmHg 45%
17:00 +40°C° 0 mm 1 mps 731 mmHg 46%
18:00 +39°C° 0 mm 1 mps 732 mmHg 48%
19:00 +37°C° 0 mm 1 mps 732 mmHg 50%
20:00 +36°C° 0 mm 1 mps 732 mmHg 52%
21:00 +36°C° 0 mm 1 mps 733 mmHg 54%
22:00 +35°C° 0 mm 1 mps 733 mmHg 56%
23:00 +35°C° 0 mm 1 mps 733 mmHg 58%

9 August, Sunday

Time Temperature Precipitation Wind Pressure Humidity
00:00 +36°C° 0.2 mm 2 mps 733 mmHg 60%
01:00 +35°C° 0.2 mm 2 mps 732 mmHg 63%
02:00 +34°C° 0.2 mm 2 mps 732 mmHg 66%
03:00 +34°C° 0.2 mm 2 mps 732 mmHg 67%
04:00 +34°C° 0.2 mm 2 mps 732 mmHg 69%
05:00 +34°C° 0.2 mm 2 mps 732 mmHg 71%
06:00 +35°C° 0.1 mm 2 mps 733 mmHg 68%
07:00 +35°C° 0.1 mm 2 mps 733 mmHg 64%
08:00 +36°C° 0.1 mm 2 mps 734 mmHg 61%
09:00 +37°C° 1.3 mm 2 mps 734 mmHg 59%
10:00 +38°C° 1.3 mm 2 mps 734 mmHg 56%
11:00 +39°C° 1.3 mm 2 mps 734 mmHg 54%
12:00 +38°C° 2.1 mm 2 mps 733 mmHg 59%
13:00 +36°C° 2.1 mm 2 mps 733 mmHg 64%
14:00 +34°C° 2.1 mm 1 mps 733 mmHg 69%
15:00 +34°C° 3.1 mm 2 mps 732 mmHg 75%
16:00 +32°C° 3.1 mm 2 mps 732 mmHg 80%
17:00 +31°C° 3.1 mm 3 mps 732 mmHg 85%
18:00 +31°C° 1.4 mm 3 mps 733 mmHg 86%
19:00 +30°C° 1.4 mm 3 mps 733 mmHg 86%
20:00 +30°C° 1.4 mm 3 mps 733 mmHg 87%
21:00 +30°C° 0.2 mm 3 mps 734 mmHg 87%
22:00 +30°C° 0.2 mm 3 mps 734 mmHg 87%
23:00 +30°C° 0.2 mm 3 mps 734 mmHg 88%

10 August, Monday

Time Temperature Precipitation Wind Pressure Humidity
00:00 +30°C° 0.4 mm 3 mps 734 mmHg 88%
01:00 +30°C° 0.4 mm 3 mps 734 mmHg 88%
02:00 +30°C° 0.4 mm 3 mps 733 mmHg 88%
03:00 +29°C° 1.1 mm 3 mps 733 mmHg 89%
04:00 +29°C° 1.1 mm 4 mps 734 mmHg 89%
05:00 +29°C° 1.1 mm 4 mps 734 mmHg 90%
06:00 +29°C° 0.8 mm 4 mps 734 mmHg 90%
07:00 +29°C° 0.8 mm 4 mps 735 mmHg 89%
08:00 +29°C° 0.8 mm 4 mps 735 mmHg 88%
09:00 +30°C° 0.3 mm 4 mps 735 mmHg 87%
10:00 +30°C° 0.3 mm 4 mps 735 mmHg 86%
11:00 +30°C° 0.3 mm 4 mps 735 mmHg 85%
12:00 +30°C° 1.3 mm 4 mps 735 mmHg 84%
13:00 +32°C° 1.3 mm 4 mps 735 mmHg 83%
14:00 +32°C° 1.3 mm 4 mps 734 mmHg 81%
15:00 +30°C° 3.4 mm 4 mps 734 mmHg 85%
16:00 +29°C° 3.4 mm 3 mps 734 mmHg 88%
17:00 +29°C° 3.4 mm 3 mps 734 mmHg 92%
18:00 +28°C° 0.7 mm 3 mps 734 mmHg 92%
19:00 +28°C° 0.7 mm 2 mps 734 mmHg 92%
20:00 +28°C° 0.7 mm 2 mps 734 mmHg 92%
21:00 +28°C° 0 mm 2 mps 734 mmHg 91%
22:00 +28°C° 0 mm 1 mps 734 mmHg 90%
23:00 +29°C° 0 mm 1 mps 735 mmHg 88%

11 August, Tuesday

Time Temperature Precipitation Wind Pressure Humidity
00:00 +28°C° 0.1 mm 1 mps 734 mmHg 88%
01:00 +28°C° 0.1 mm 1 mps 734 mmHg 88%
02:00 +28°C° 0.1 mm 1 mps 734 mmHg 88%
03:00 +28°C° 0.3 mm 1 mps 734 mmHg 88%
04:00 +28°C° 0.3 mm 1 mps 734 mmHg 88%
05:00 +28°C° 0.3 mm 1 mps 734 mmHg 87%
06:00 +29°C° 0.2 mm 1 mps 734 mmHg 85%
07:00 +29°C° 0.2 mm 1 mps 735 mmHg 83%
08:00 +30°C° 0.2 mm 1 mps 735 mmHg 81%
09:00 +31°C° 0.1 mm 2 mps 735 mmHg 76%
10:00 +32°C° 0.1 mm 2 mps 735 mmHg 72%
11:00 +34°C° 0.1 mm 2 mps 736 mmHg 68%
12:00 +34°C° 0.1 mm 2 mps 735 mmHg 66%
13:00 +35°C° 0.1 mm 2 mps 735 mmHg 64%
14:00 +36°C° 0.1 mm 2 mps 734 mmHg 63%
15:00 +35°C° 0.6 mm 2 mps 734 mmHg 64%
16:00 +35°C° 0.6 mm 2 mps 733 mmHg 66%
17:00 +34°C° 0.6 mm 2 mps 733 mmHg 68%
18:00 +33°C° 0.2 mm 1 mps 733 mmHg 72%
19:00 +32°C° 0.2 mm 1 mps 734 mmHg 76%
20:00 +31°C° 0.2 mm 1 mps 734 mmHg 80%
21:00 +30°C° 0.5 mm 1 mps 734 mmHg 82%
22:00 +30°C° 0.5 mm 2 mps 734 mmHg 84%
23:00 +29°C° 0.5 mm 2 mps 735 mmHg 87%
Show more